TimeMST,TemperatureF,Dew PointF,Humidity,Sea Level PressureIn,VisibilityMPH,Wind Direction,Wind SpeedMPH,Gust SpeedMPH,PrecipitationIn,Events,Conditions,WindDirDegrees,DateUTC
12:56 AM,53.1,21.0,29,29.90,10.0,Calm,Calm,-,N/A,,Clear,0,2011-11-04 07:56:00
1:56 AM,51.1,21.0,31,29.89,10.0,SW,3.5,-,N/A,,Clear,230,2011-11-04 08:56:00
2:00 AM,-9999,-9999,N/A,-9999,-9999.0,North,-9999.0,-,N/A,,Unknown,0,2011-11-04 09:00:00
2:04 AM,-9999,-9999,N/A,-9999,-9999.0,North,-9999.0,-,N/A,,Unknown,0,2011-11-04 09:04:00
2:56 AM,48.9,21.0,33,29.87,10.0,Calm,Calm,-,N/A,,Clear,0,2011-11-04 09:56:00
3:56 AM,53.1,21.0,29,29.85,10.0,SSE,4.6,-,N/A,,Clear,160,2011-11-04 10:56:00
4:56 AM,54.0,21.9,29,29.85,10.0,SSE,8.1,-,N/A,,Clear,160,2011-11-04 11:56:00
5:55 AM,51.8,24.8,35,29.86,10.0,Calm,Calm,-,N/A,,Mostly Cloudy,0,2011-11-04 12:55:00
6:55 AM,55.4,26.6,33,29.86,10.0,South,8.1,-,N/A,,Mostly Cloudy,170,2011-11-04 13:55:00
7:55 AM,62.6,28.4,27,29.87,10.0,South,6.9,-,N/A,,Mostly Cloudy,180,2011-11-04 14:55:00
8:55 AM,69.8,26.6,20,29.86,10.0,SE,12.7,19.6,N/A,,Mostly Cloudy,140,2011-11-04 15:55:00
9:55 AM,66.2,21.2,18,29.84,10.0,SSE,9.2,-,N/A,,Mostly Cloudy,150,2011-11-04 16:55:00
10:55 AM,71.6,23.0,16,29.81,10.0,SSE,10.4,25.3,N/A,,Mostly Cloudy,150,2011-11-04 17:55:00
11:55 AM,73.4,17.6,12,29.78,10.0,South,10.4,24.2,N/A,,Mostly Cloudy,170,2011-11-04 18:55:00
12:55 PM,75.2,23.0,14,29.73,10.0,South,18.4,28.8,N/A,,Mostly Cloudy,170,2011-11-04 19:55:00
1:56 PM,75.2,15.8,11,29.69,10.0,SSW,15.0,28.8,N/A,,Mostly Cloudy,200,2011-11-04 20:56:00
2:55 PM,73.4,15.8,11,29.68,10.0,South,19.6,38.0,N/A,,Mostly Cloudy,190,2011-11-04 21:55:00
3:55 PM,71.6,17.6,13,29.67,10.0,South,16.1,27.6,N/A,,Scattered Clouds,180,2011-11-04 22:55:00
4:55 PM,68.0,21.2,17,29.65,10.0,SSW,25.3,38.0,N/A,,Partly Cloudy,200,2011-11-04 23:55:00
5:55 PM,64.4,26.6,24,29.65,10.0,SSW,26.5,40.3,N/A,,Partly Cloudy,200,2011-11-05 00:55:00
6:55 PM,62.6,37.4,39,29.64,10.0,SSW,33.4,41.4,N/A,,Scattered Clouds,200,2011-11-05 01:55:00
7:55 PM,62.6,39.2,42,29.62,10.0,South,35.7,50.6,N/A,,Scattered Clouds,190,2011-11-05 02:55:00
8:55 PM,60.8,41.0,48,29.60,10.0,SSW,36.8,44.9,N/A,,Scattered Clouds,200,2011-11-05 03:55:00
9:55 PM,60.8,42.8,52,29.60,10.0,SSW,31.1,48.3,N/A,,Scattered Clouds,200,2011-11-05 04:55:00
10:55 PM,57.2,41.0,55,29.78,10.0,SSW,26.5,46.0,N/A,,Mostly Cloudy,200,2011-11-05 05:55:00
11:56 PM,57.0,39.9,53,29.61,10.0,South,31.1,43.7,N/A,,Scattered Clouds,190,2011-11-05 06:56:00